TimeEDT,TemperatureF,Dew PointF,Humidity,Sea Level PressureIn,VisibilityMPH,Wind Direction,Wind SpeedMPH,Gust SpeedMPH,PrecipitationIn,Events,Conditions,WindDirDegrees,DateUTC
12:30 AM,71.6,64.4,78,29.84,10.0,NNE,4.6,-,N/A,,Mostly Cloudy,30,2013-06-19 04:30:00
12:45 AM,69.8,64.4,83,29.84,10.0,NNE,3.5,-,N/A,,Scattered Clouds,30,2013-06-19 04:45:00
12:54 AM,70.0,63.0,78,29.84,10.0,North,4.6,-,N/A,,Clear,350,2013-06-19 04:54:00
1:50 AM,69.8,64.4,83,29.84,10.0,NNW,6.9,-,N/A,,Mostly Cloudy,340,2013-06-19 05:50:00
2:10 AM,69.8,62.6,78,29.84,10.0,North,8.1,-,N/A,,Scattered Clouds,350,2013-06-19 06:10:00
2:54 AM,68.0,62.1,81,29.85,10.0,NNW,6.9,-,N/A,,Partly Cloudy,340,2013-06-19 06:54:00
3:26 AM,68.0,62.6,83,29.86,10.0,North,4.6,-,N/A,,Partly Cloudy,350,2013-06-19 07:26:00
3:54 AM,68.0,62.1,81,29.86,10.0,North,3.5,-,N/A,,Scattered Clouds,350,2013-06-19 07:54:00
4:04 AM,68.0,62.6,83,29.87,10.0,North,4.6,-,N/A,,Scattered Clouds,350,2013-06-19 08:04:00
4:15 AM,68.0,62.6,83,29.87,10.0,North,3.5,-,N/A,,Mostly Cloudy,360,2013-06-19 08:15:00
4:54 AM,68.0,62.1,81,29.89,10.0,North,3.5,-,N/A,,Overcast,350,2013-06-19 08:54:00
5:54 AM,66.9,61.0,81,29.91,10.0,North,3.5,-,N/A,,Scattered Clouds,10,2013-06-19 09:54:00
6:54 AM,68.0,62.1,81,29.94,10.0,Calm,Calm,-,N/A,,Mostly Cloudy,0,2013-06-19 10:54:00
7:27 AM,69.8,62.6,78,29.95,10.0,Calm,Calm,-,N/A,,Scattered Clouds,0,2013-06-19 11:27:00
7:54 AM,71.1,62.1,73,29.96,10.0,NE,4.6,-,N/A,,Mostly Cloudy,40,2013-06-19 11:54:00
8:27 AM,73.4,62.6,69,29.98,10.0,NE,11.5,-,N/A,,Scattered Clouds,50,2013-06-19 12:27:00
8:54 AM,73.0,62.1,68,29.99,10.0,ENE,10.4,-,N/A,,Clear,60,2013-06-19 12:54:00
9:20 AM,73.4,62.6,69,30.00,10.0,NE,9.2,-,N/A,,Mostly Cloudy,50,2013-06-19 13:20:00
9:47 AM,75.2,62.6,65,30.01,10.0,NE,10.4,-,N/A,,Scattered Clouds,40,2013-06-19 13:47:00
9:54 AM,75.0,62.1,64,30.01,10.0,ENE,9.2,-,N/A,,Scattered Clouds,60,2013-06-19 13:54:00
10:01 AM,75.2,62.6,65,30.01,10.0,ENE,10.4,-,N/A,,Mostly Cloudy,60,2013-06-19 14:01:00
10:22 AM,75.2,62.6,65,30.01,10.0,NE,10.4,-,N/A,,Scattered Clouds,50,2013-06-19 14:22:00
10:34 AM,75.2,62.6,65,30.02,10.0,ENE,11.5,-,N/A,,Mostly Cloudy,60,2013-06-19 14:34:00
10:54 AM,75.0,62.1,64,30.02,10.0,ENE,11.5,-,N/A,,Mostly Cloudy,60,2013-06-19 14:54:00
11:47 AM,75.2,62.6,65,30.04,10.0,ENE,9.2,-,N/A,,Mostly Cloudy,60,2013-06-19 15:47:00
11:54 AM,75.0,62.1,64,30.04,10.0,NE,8.1,-,N/A,,Overcast,40,2013-06-19 15:54:00
12:06 PM,73.4,62.6,69,30.05,10.0,ENE,5.8,-,N/A,,Overcast,60,2013-06-19 16:06:00
12:54 PM,77.0,63.0,62,30.06,10.0,East,6.9,-,N/A,,Overcast,80,2013-06-19 16:54:00
1:14 PM,75.2,62.6,65,30.06,10.0,ENE,6.9,-,N/A,,Overcast,70,2013-06-19 17:14:00
1:52 PM,73.4,62.6,69,30.07,10.0,ENE,6.9,-,0.00,,Overcast,60,2013-06-19 17:52:00
1:54 PM,73.9,62.1,66,30.07,10.0,ENE,6.9,-,0.00,,Overcast,70,2013-06-19 17:54:00
2:54 PM,73.9,62.1,66,30.07,10.0,East,8.1,-,0.00,,Overcast,90,2013-06-19 18:54:00
3:54 PM,73.9,62.1,66,30.08,10.0,East,4.6,-,N/A,,Overcast,80,2013-06-19 19:54:00
4:54 PM,75.0,62.1,64,30.07,10.0,NE,6.9,-,N/A,,Overcast,50,2013-06-19 20:54:00
8:54 PM,69.1,60.1,73,30.12,10.0,ESE,5.8,-,N/A,,Scattered Clouds,110,2013-06-20 00:54:00
9:54 PM,66.9,57.9,73,30.13,10.0,East,3.5,-,N/A,,Clear,80,2013-06-20 01:54:00
10:54 PM,64.9,59.0,81,30.15,10.0,Calm,Calm,-,N/A,,Clear,0,2013-06-20 02:54:00
11:54 PM,64.9,57.9,78,30.16,10.0,Calm,Calm,-,N/A,,Clear,0,2013-06-20 03:54:00